START_TIME,STEP,MOV.,M34,t_acc.,L5,t_acc.,L18,t_acc.,L14,t_acc.
1981-08-29 06:00:25.340 ,0,0,0,12,0,12,0,12,0,12
1981-08-29 06:00:37.340 ,0,0,0,12,0,12,0,12,0,12
1981-08-29 06:00:49.340 ,1,1,0,12,0,12,0,12,0,12
1981-08-29 06:01:01.340 ,1,1,0,12,0,12,0,12,0,12
1981-08-29 06:01:13.340 ,1,0,0,12,0,12,0,12,0,12
1981-08-29 06:01:25.340 ,1,0,0,12,0,12,0,12,0,12
1981-08-29 06:01:37.340 ,2,1,0,12,0,12,0,12,0,12
1981-08-29 06:01:49.340 ,2,1,0,12,0,12,0,12,0,12
1981-08-29 06:02:01.340 ,2,0,0,12,0,12,0,12,0,12
1981-08-29 06:02:13.340 ,2,0,0,12,0,12,0,12,0,12
1981-08-29 06:02:25.340 ,3,1,0,12,0,12,0,12,0,12
1981-08-29 06:02:37.340 ,3,1,0,12,0,12,0,12,0,12
1981-08-29 06:02:49.340 ,3,0,0,12,0,12,0,12,0,12
1981-08-29 06:03:01.340 ,3,0,0,12,0,12,0,12,0,12
1981-08-29 06:03:13.340 ,4,1,0,12,0,12,0,12,0,12
1981-08-29 06:03:25.340 ,4,1,0,12,0,12,0,12,0,12
1981-08-29 06:03:37.340 ,4,0,0,12,0,12,0,12,0,12
1981-08-29 06:03:49.340 ,4,0,0,12,0,12,0,12,0,12
1981-08-29 06:04:01.340 ,5,1,0,12,0,12,0,12,1,12
1981-08-29 06:04:13.340 ,5,1,0,12,0,12,0,12,0,12
1981-08-29 06:04:25.340 ,5,0,0,12,0,12,0,12,0,12
1981-08-29 06:04:37.340 ,5,0,0,12,0,12,0,12,0,12
1981-08-29 06:04:49.340 ,6,1,0,12,0,12,0,12,0,12
1981-08-29 06:05:01.340 ,6,1,0,12,0,12,0,12,0,12
1981-08-29 06:05:13.340 ,6,0,0,12,0,12,0,12,0,12
1981-08-29 06:05:25.340 ,6,0,0,12,0,12,0,12,0,12
1981-08-29 06:05:37.340 ,7,1,0,12,0,12,0,12,0,12
1981-08-29 06:05:49.340 ,7,1,0,12,0,12,0,12,0,12
1981-08-29 06:06:01.340 ,7,0,0,12,0,12,0,12,0,12
1981-08-29 06:06:13.340 ,7,0,0,12,0,12,0,12,0,12
1981-08-29 06:06:25.340 ,7,1,0,12,0,12,0,12,0,12
1981-08-29 06:06:37.340 ,7,1,0,12,0,12,0,12,0,12
1981-08-29 06:06:49.340 ,6,1,0,12,0,12,0,12,0,12
1981-08-29 06:07:01.340 ,6,1,0,12,0,12,0,12,0,12
1981-08-29 06:07:13.340 ,5,1,0,12,0,12,0,12,0,12
1981-08-29 06:07:25.340 ,5,1,0,12,0,12,0,12,0,12
1981-08-29 06:07:37.340 ,4,1,0,12,0,12,0,12,0,12
1981-08-29 06:07:49.340 ,4,1,0,12,0,12,0,12,0,12
1981-08-29 06:08:01.340 ,3,1,0,12,0,12,0,12,0,12
1981-08-29 06:08:13.340 ,3,1,0,12,0,12,0,12,0,12
1981-08-29 06:08:25.340 ,2,1,0,12,0,12,0,12,0,12
1981-08-29 06:08:37.340 ,2,1,0,12,0,12,0,12,0,12
1981-08-29 06:08:49.340 ,1,1,0,12,0,12,0,12,0,12
1981-08-29 06:09:01.340 ,1,1,0,12,0,12,0,12,0,12
1981-08-29 06:09:13.340 ,0,1,0,12,0,12,0,12,0,12
1981-08-29 06:09:25.340 ,0,1,0,12,0,12,0,12,0,12
1981-08-29 06:09:37.340 ,0,1,0,12,0,12,0,12,0,12
1981-08-29 06:09:49.340 ,0,1,0,12,0,12,0,12,0,12
1981-08-29 06:10:01.340 ,1,1,0,12,0,12,0,12,0,12
1981-08-29 06:10:13.340 ,1,1,0,12,0,12,0,12,0,12
1981-08-29 06:10:25.340 ,2,1,0,12,0,12,0,12,0,12
1981-08-29 06:10:37.340 ,2,1,0,12,0,12,0,12,0,12
1981-08-29 06:10:49.340 ,3,1,0,12,0,12,0,12,1,12
1981-08-29 06:11:01.340 ,3,1,0,12,0,12,0,12,0,12
1981-08-29 06:11:13.340 ,4,1,0,12,0,12,0,12,0,12
1981-08-29 06:11:25.340 ,4,1,0,12,0,12,0,12,0,12
1981-08-29 06:11:37.340 ,5,1,0,12,0,12,0,12,0,12
1981-08-29 06:11:49.340 ,5,1,0,12,0,12,0,12,0,12
1981-08-29 06:12:01.340 ,6,1,0,12,0,12,0,12,0,12
1981-08-29 06:12:13.340 ,6,1,0,12,0,12,0,12,0,12
1981-08-29 06:12:25.340 ,7,1,0,12,0,12,0,12,0,12
1981-08-29 06:12:37.340 ,7,1,0,12,0,12,0,12,0,12
1981-08-29 06:12:49.340 ,7,1,0,12,0,12,0,12,0,12
1981-08-29 06:13:01.340 ,7,1,0,12,0,12,0,12,0,12
1981-08-29 06:13:13.340 ,7,0,0,12,0,12,0,12,0,12
1981-08-29 06:13:25.340 ,7,0,0,12,0,12,0,12,0,12
1981-08-29 06:13:37.340 ,6,1,0,12,0,12,0,12,0,12
1981-08-29 06:13:49.340 ,6,1,0,12,0,12,0,12,0,12
1981-08-29 06:14:01.340 ,6,0,0,12,0,12,0,12,0,12
1981-08-29 06:14:13.340 ,6,0,0,12,0,12,0,12,0,12
1981-08-29 06:14:25.340 ,5,1,0,12,0,12,0,12,0,12
1981-08-29 06:14:37.340 ,5,1,0,12,0,12,0,12,0,12
1981-08-29 06:14:49.340 ,5,0,0,12,0,12,0,12,0,12
1981-08-29 06:15:01.340 ,5,0,,0,,0,,0,,0
1981-08-29 06:15:13.340 ,4,1,0,12,0,12,0,12,0,12
1981-08-29 06:15:25.340 ,4,1,0,12,0,12,0,12,1,12
1981-08-29 06:15:37.340 ,4,0,0,12,0,12,0,12,0,12
1981-08-29 06:15:49.340 ,4,0,0,12,0,12,0,12,0,12
1981-08-29 06:16:01.340 ,3,1,0,12,0,12,0,12,0,12
1981-08-29 06:16:13.340 ,3,1,0,12,0,12,0,12,0,12
1981-08-29 06:16:25.340 ,3,0,0,12,0,12,0,12,0,12
1981-08-29 06:16:37.340 ,3,0,0,12,0,12,0,12,0,12
1981-08-29 06:16:49.340 ,2,1,0,12,0,12,0,12,0,12
1981-08-29 06:17:01.340 ,2,1,0,12,0,12,0,12,0,12
1981-08-29 06:17:13.340 ,2,0,0,12,0,12,0,12,0,12
1981-08-29 06:17:25.340 ,2,0,0,12,0,12,0,12,0,12
1981-08-29 06:17:37.340 ,1,1,0,12,0,12,0,12,0,12
1981-08-29 06:17:49.340 ,1,1,0,12,0,12,0,12,0,12
1981-08-29 06:18:01.340 ,1,0,0,12,0,12,0,12,0,12
1981-08-29 06:18:13.340 ,1,0,0,12,0,12,0,12,0,12
1981-08-29 06:18:25.340 ,0,1,0,12,0,12,0,12,0,12
1981-08-29 06:18:37.340 ,0,1,0,12,0,12,0,12,0,12
1981-08-29 06:18:49.340 ,0,0,0,12,0,12,0,12,0,12
1981-08-29 06:19:01.340 ,0,0,0,12,0,12,0,12,0,12
1981-08-29 06:19:13.340 ,0,1,0,12,0,12,0,12,0,12
1981-08-29 06:19:25.340 ,0,1,0,12,0,12,0,12,0,12
1981-08-29 06:19:37.340 ,0,0,0,12,0,12,0,12,0,12
1981-08-29 06:19:49.340 ,0,0,0,12,0,12,0,12,0,12
1981-08-29 06:20:01.340 ,1,1,0,12,0,12,0,12,0,12
1981-08-29 06:20:13.340 ,1,1,0,12,0,12,0,12,0,12
1981-08-29 06:20:25.340 ,1,0,0,12,0,12,0,12,0,12
1981-08-29 06:20:37.340 ,1,0,0,12,0,12,0,12,0,12
1981-08-29 06:20:49.340 ,2,1,0,12,0,12,0,12,0,12
1981-08-29 06:21:01.340 ,2,1,0,12,0,12,0,12,0,12
1981-08-29 06:21:13.340 ,2,0,0,12,0,12,0,12,0,12
1981-08-29 06:21:25.340 ,2,0,0,12,0,12,0,12,0,12
1981-08-29 06:21:37.340 ,3,1,0,12,0,12,0,12,0,12
1981-08-29 06:21:49.340 ,3,1,0,12,0,12,0,12,0,12
1981-08-29 06:22:01.340 ,3,0,0,12,0,12,0,12,0,12
1981-08-29 06:22:13.340 ,3,0,0,12,0,12,0,12,0,12
1981-08-29 06:22:25.340 ,4,1,0,12,0,12,0,12,0,12
1981-08-29 06:22:37.340 ,4,1,0,12,0,12,0,12,0,12
1981-08-29 06:22:49.340 ,4,0,0,12,0,12,0,12,0,12
1981-08-29 06:23:01.340 ,4,0,0,12,0,12,0,12,0,12
1981-08-29 06:23:13.340 ,5,1,0,12,0,12,0,12,0,12
1981-08-29 06:23:25.340 ,5,1,0,12,0,12,0,12,0,12
1981-08-29 06:23:37.340 ,5,0,0,12,0,12,0,12,0,12
1981-08-29 06:23:49.340 ,5,0,0,12,0,12,0,12,0,12
1981-08-29 06:24:01.340 ,6,1,0,12,0,12,0,12,0,12
1981-08-29 06:24:13.340 ,6,1,0,12,0,12,0,12,0,12
1981-08-29 06:24:25.340 ,6,0,0,12,0,12,0,12,0,12
1981-08-29 06:24:37.340 ,6,0,0,12,0,12,0,12,0,12
1981-08-29 06:24:49.340 ,7,1,0,12,0,12,0,12,0,12
1981-08-29 06:25:01.340 ,7,1,0,12,0,12,0,12,0,12
1981-08-29 06:25:13.340 ,7,0,0,12,0,12,0,12,0,12
1981-08-29 06:25:25.340 ,7,0,0,12,0,12,0,12,0,12
1981-08-29 06:25:37.340 ,7,1,0,12,0,12,0,12,0,12
1981-08-29 06:25:49.340 ,7,1,0,12,0,12,0,12,0,12
1981-08-29 06:26:01.340 ,6,1,0,12,0,12,0,12,0,12
1981-08-29 06:26:13.340 ,6,1,0,12,0,12,0,12,0,12
1981-08-29 06:26:25.340 ,5,1,0,12,0,12,0,12,0,12
1981-08-29 06:26:37.340 ,5,1,0,12,0,12,0,12,0,12
1981-08-29 06:26:49.340 ,4,1,0,12,0,12,0,12,0,12
1981-08-29 06:27:01.340 ,4,1,0,12,0,12,0,12,0,12
1981-08-29 06:27:13.340 ,3,1,0,12,0,12,0,12,0,12
1981-08-29 06:27:25.340 ,3,1,0,12,0,12,0,12,0,12
1981-08-29 06:27:37.340 ,2,1,0,12,0,12,0,12,0,12
1981-08-29 06:27:49.340 ,2,1,0,12,0,12,0,12,0,12
1981-08-29 06:28:01.340 ,1,1,0,12,0,12,0,12,0,12
1981-08-29 06:28:13.340 ,1,1,0,12,0,12,0,12,0,12
1981-08-29 06:28:25.340 ,0,1,0,12,0,12,0,12,0,12
1981-08-29 06:28:37.340 ,0,1,0,12,0,12,0,12,0,12
1981-08-29 06:28:49.340 ,0,1,0,12,0,12,0,12,0,12
1981-08-29 06:29:01.340 ,0,1,0,12,0,12,0,12,0,12
1981-08-29 06:29:13.340 ,1,1,0,12,0,12,0,12,0,12
1981-08-29 06:29:25.340 ,1,1,0,12,0,12,0,12,0,12
1981-08-29 06:29:37.340 ,2,1,0,12,0,12,0,12,0,12
1981-08-29 06:29:49.340 ,2,1,0,12,0,12,0,12,0,12
1981-08-29 06:30:01.340 ,3,1,0,12,0,12,0,12,0,12
1981-08-29 06:30:13.340 ,3,1,0,12,0,12,0,12,0,12
1981-08-29 06:30:25.340 ,4,1,0,12,0,12,0,12,0,12
1981-08-29 06:30:37.340 ,4,1,0,12,0,12,0,12,0,12
1981-08-29 06:30:49.340 ,5,1,0,12,0,12,0,12,0,12
1981-08-29 06:31:01.340 ,5,1,0,12,0,12,0,12,0,12
1981-08-29 06:31:13.340 ,6,1,0,12,0,12,0,12,0,12
1981-08-29 06:31:25.340 ,6,1,0,12,0,12,0,12,0,12
1981-08-29 06:31:37.340 ,0,0,0,12,0,12,0,12,0,12
1981-08-29 06:31:49.340 ,0,0,0,12,0,12,0,12,0,12
1981-08-29 06:32:28.340 ,0,0,,0,,0,,0,,0
1981-08-29 06:32:40.340 ,0,0,0,12,0,12,0,12,0,12
1981-08-29 06:32:49.340 ,6,1,0,12,0,12,0,12,0,12
1981-08-29 06:33:01.340 ,6,1,0,12,0,12,0,12,0,12
1981-08-29 06:33:13.340 ,6,0,0,12,0,12,0,12,0,12
1981-08-29 06:33:25.340 ,6,0,0,12,0,12,0,12,0,12
1981-08-29 06:33:37.340 ,5,1,0,12,0,12,0,12,0,12
1981-08-29 06:33:49.340 ,5,1,0,12,0,12,0,12,0,12
1981-08-29 06:34:01.340 ,5,0,0,12,0,12,0,12,0,12
1981-08-29 06:34:13.340 ,5,0,0,12,0,12,0,12,0,12
1981-08-29 06:34:25.340 ,4,1,0,12,0,12,0,12,0,12
1981-08-29 06:34:37.340 ,4,1,0,12,0,12,0,12,0,12
1981-08-29 06:34:49.340 ,4,0,0,12,0,12,0,12,0,12
1981-08-29 06:35:01.340 ,4,0,0,12,0,12,0,12,0,12
1981-08-29 06:35:13.340 ,3,1,0,12,0,12,0,12,0,12
1981-08-29 06:35:25.340 ,3,1,0,12,0,12,0,12,0,12
1981-08-29 06:35:37.340 ,3,0,0,12,0,12,0,12,0,12
1981-08-29 06:35:49.340 ,3,0,0,12,0,12,0,12,0,12
1981-08-29 06:36:01.340 ,2,1,0,12,0,12,0,12,0,12
1981-08-29 06:36:13.340 ,2,1,0,12,0,12,0,12,0,12
1981-08-29 06:36:25.340 ,2,0,0,12,0,12,0,12,0,12
1981-08-29 06:36:37.340 ,2,0,0,12,0,12,0,12,0,12
1981-08-29 06:36:49.340 ,1,1,0,12,0,12,0,12,0,12
1981-08-29 06:37:01.340 ,1,1,0,12,0,12,0,12,0,12
1981-08-29 06:37:13.340 ,1,0,0,12,0,12,0,12,0,12
1981-08-29 06:37:25.340 ,1,0,0,12,0,12,0,12,0,12
1981-08-29 06:37:37.340 ,0,1,0,12,0,12,0,12,0,12
1981-08-29 06:37:49.340 ,0,1,0,12,0,12,0,12,0,12
1981-08-29 06:38:01.340 ,0,0,0,12,0,12,0,12,0,12
1981-08-29 06:38:13.340 ,0,0,0,12,0,12,0,12,0,12
1981-08-29 06:38:25.340 ,0,1,0,12,0,12,0,12,0,12
1981-08-29 06:38:37.340 ,0,1,0,12,0,12,0,12,0,12
1981-08-29 06:38:49.340 ,0,0,0,12,0,12,0,12,0,12
1981-08-29 06:39:01.340 ,0,0,0,12,0,12,0,12,0,12
1981-08-29 06:39:13.340 ,1,1,0,12,0,12,0,12,0,12
1981-08-29 06:39:25.340 ,1,1,0,12,0,12,0,12,0,12
1981-08-29 06:39:37.340 ,1,0,0,12,0,12,0,12,0,12
1981-08-29 06:39:49.340 ,1,0,0,12,0,12,0,12,0,12
1981-08-29 06:40:01.340 ,2,1,0,12,0,12,0,12,0,12
1981-08-29 06:40:13.340 ,2,1,0,12,0,12,0,12,0,12
1981-08-29 06:40:25.340 ,2,0,0,12,0,12,0,12,0,12
1981-08-29 06:40:37.340 ,2,0,0,12,0,12,0,12,0,12
1981-08-29 06:40:49.340 ,3,1,0,12,0,12,0,12,0,12
1981-08-29 06:41:01.340 ,3,1,0,12,0,12,0,12,0,12
1981-08-29 06:41:13.340 ,3,0,0,12,0,12,0,12,0,12
1981-08-29 06:41:25.340 ,3,0,0,12,0,12,0,12,0,12
1981-08-29 06:41:37.340 ,4,1,0,12,0,12,0,12,0,12
1981-08-29 06:41:49.340 ,4,1,0,12,0,12,0,12,0,12
1981-08-29 06:42:01.340 ,4,0,0,12,0,12,0,12,0,12
1981-08-29 06:42:13.340 ,4,0,0,12,0,12,0,12,0,12
1981-08-29 06:42:25.340 ,5,1,0,12,0,12,0,12,0,12
1981-08-29 06:42:37.340 ,5,1,0,12,0,12,0,12,0,12
1981-08-29 06:42:49.340 ,5,0,0,12,0,12,0,12,0,12
1981-08-29 06:43:01.340 ,5,0,0,12,0,12,0,12,0,12
1981-08-29 06:43:13.340 ,6,1,0,12,0,12,0,12,0,12
1981-08-29 06:43:25.340 ,6,1,0,12,0,12,0,12,0,12
1981-08-29 06:43:37.340 ,6,0,0,12,0,12,0,12,0,12
1981-08-29 06:43:49.340 ,6,0,0,12,0,12,0,12,0,12
1981-08-29 06:44:01.340 ,7,1,0,12,0,12,0,12,0,12
1981-08-29 06:44:13.340 ,7,1,0,12,0,12,0,12,0,12
1981-08-29 06:44:25.340 ,7,0,0,12,0,12,0,12,0,12
1981-08-29 06:44:37.340 ,7,0,0,12,0,12,0,12,0,12
1981-08-29 06:44:49.340 ,7,1,0,12,0,12,0,12,0,12
1981-08-29 06:45:01.340 ,7,1,0,12,0,12,0,12,0,12
1981-08-29 06:45:13.340 ,6,1,0,12,0,12,0,12,0,12
1981-08-29 06:45:25.340 ,6,1,0,12,0,12,0,12,0,12
1981-08-29 06:45:37.340 ,5,1,0,12,0,12,0,12,0,12
1981-08-29 06:45:49.340 ,5,1,0,12,0,12,0,12,0,12
1981-08-29 06:46:01.340 ,4,1,0,12,0,12,0,12,0,12
1981-08-29 06:46:13.340 ,4,1,0,12,0,12,0,12,0,12
1981-08-29 06:46:25.340 ,3,1,0,12,0,12,0,12,0,12
1981-08-29 06:46:37.340 ,3,1,0,12,0,12,0,12,0,12
1981-08-29 06:46:49.340 ,2,1,0,12,0,12,0,12,0,12
1981-08-29 06:47:01.340 ,2,1,0,12,0,12,0,12,0,12
1981-08-29 06:47:13.340 ,1,1,0,12,0,12,0,12,0,12
1981-08-29 06:47:25.340 ,1,1,0,12,0,12,0,12,0,12
1981-08-29 06:47:37.340 ,0,1,0,12,0,12,0,12,0,12
1981-08-29 06:47:49.340 ,0,1,0,12,0,12,0,12,0,12
1981-08-29 06:48:01.340 ,0,1,0,12,0,12,0,12,0,12
1981-08-29 06:48:13.340 ,0,1,0,12,0,12,0,12,0,12
1981-08-29 06:48:25.340 ,1,1,0,12,0,12,0,12,0,12
1981-08-29 06:48:37.340 ,1,1,0,12,0,12,0,12,0,12
1981-08-29 06:48:49.340 ,2,1,0,12,0,12,0,12,0,12
1981-08-29 06:49:01.340 ,2,1,0,12,0,12,0,12,0,12
1981-08-29 06:49:13.340 ,3,1,0,12,0,12,0,12,0,12
1981-08-29 06:49:25.340 ,3,1,0,12,0,12,0,12,0,12
1981-08-29 06:49:37.340 ,4,1,0,12,0,12,0,12,0,12
1981-08-29 06:49:49.340 ,4,1,0,12,0,12,0,12,0,12
1981-08-29 06:50:01.340 ,5,1,0,12,0,12,0,12,0,12
1981-08-29 06:50:13.340 ,5,1,0,12,0,12,0,12,0,12
1981-08-29 06:50:25.340 ,6,1,0,12,0,12,0,12,0,12
1981-08-29 06:50:37.340 ,6,1,0,12,0,12,0,12,0,12
1981-08-29 06:50:49.340 ,7,1,0,12,0,12,0,12,0,12
1981-08-29 06:51:01.340 ,7,1,0,12,0,12,0,12,0,12
1981-08-29 06:51:13.340 ,7,1,0,12,0,12,0,12,0,12
1981-08-29 06:51:25.340 ,7,1,0,12,0,12,0,12,0,12
1981-08-29 06:51:37.340 ,7,0,0,12,0,12,0,12,0,12
1981-08-29 06:51:49.340 ,7,0,0,12,0,12,0,12,0,12
1981-08-29 06:52:01.340 ,6,1,0,12,0,12,0,12,0,12
1981-08-29 06:52:13.340 ,6,1,0,12,0,12,0,12,0,12
1981-08-29 06:52:25.340 ,6,0,0,12,0,12,0,12,0,12
1981-08-29 06:52:37.340 ,6,0,0,12,0,12,0,12,0,12
1981-08-29 06:52:49.340 ,5,1,0,12,0,12,0,12,0,12
1981-08-29 06:53:01.340 ,5,1,0,12,0,12,0,12,0,12
1981-08-29 06:53:13.340 ,5,0,0,12,0,12,0,12,0,12
1981-08-29 06:53:25.340 ,5,0,0,12,0,12,0,12,0,12
1981-08-29 06:53:37.340 ,4,1,0,12,0,12,0,12,0,12
1981-08-29 06:53:49.340 ,4,1,0,12,0,12,0,12,0,12
1981-08-29 06:54:01.340 ,4,0,0,12,0,12,0,12,0,12
1981-08-29 06:54:13.340 ,4,0,0,12,0,12,0,12,0,12
1981-08-29 06:54:25.340 ,3,1,0,12,0,12,0,12,0,12
1981-08-29 06:54:37.340 ,3,1,0,12,0,12,0,12,0,12
1981-08-29 06:54:49.340 ,3,0,0,12,0,12,0,12,0,12
1981-08-29 06:55:01.340 ,3,0,0,12,0,12,0,12,0,12
1981-08-29 06:55:13.340 ,2,1,0,12,0,12,0,12,0,12
1981-08-29 06:55:25.340 ,2,1,0,12,0,12,0,12,0,12
1981-08-29 06:55:37.340 ,2,0,0,12,0,12,0,12,0,12
1981-08-29 06:55:49.340 ,2,0,0,12,0,12,0,12,0,12
1981-08-29 06:56:01.340 ,1,1,0,12,0,12,0,12,0,12
1981-08-29 06:56:13.340 ,1,1,0,12,0,12,0,12,0,12
1981-08-29 06:56:25.340 ,1,0,0,12,0,12,0,12,0,12
1981-08-29 06:56:37.340 ,1,0,0,12,0,12,0,12,0,12
1981-08-29 06:56:49.340 ,0,1,0,12,0,12,0,12,0,12
1981-08-29 06:57:01.340 ,0,1,0,12,0,12,0,12,0,12
1981-08-29 06:57:13.340 ,0,0,0,12,0,12,0,12,0,12
1981-08-29 06:57:25.340 ,0,0,0,12,0,12,0,12,0,12
1981-08-29 06:57:37.340 ,0,1,0,12,0,12,0,12,0,12
1981-08-29 06:57:49.340 ,0,1,0,12,0,12,0,12,0,12
1981-08-29 06:58:01.340 ,0,0,0,12,0,12,0,12,0,12
1981-08-29 06:58:13.340 ,0,0,0,12,0,12,0,12,0,12
1981-08-29 06:58:25.340 ,1,1,0,12,0,12,0,12,0,12
1981-08-29 06:58:37.340 ,1,1,0,12,0,12,0,12,0,12
1981-08-29 06:58:49.340 ,1,0,0,12,0,12,0,12,0,12
1981-08-29 06:59:01.340 ,1,0,0,12,0,12,0,12,0,12
1981-08-29 06:59:13.340 ,2,1,0,12,0,12,0,12,0,12
1981-08-29 06:59:25.340 ,2,1,0,12,0,12,0,12,0,12
1981-08-29 06:59:37.340 ,2,0,0,12,0,12,0,12,0,12
1981-08-29 06:59:49.340 ,2,0,0,12,0,12,0,12,0,12
1981-08-29 07:00:01.340 ,3,1,0,12,0,12,0,12,0,12
1981-08-29 07:00:13.340 ,3,1,0,12,0,12,0,12,0,12
1981-08-29 07:00:25.340 ,3,0,0,12,0,12,0,12,0,12
1981-08-29 07:00:37.340 ,3,0,0,12,0,12,0,12,0,12
1981-08-29 07:00:49.340 ,4,1,0,12,0,12,0,12,0,12
1981-08-29 07:01:01.340 ,4,1,0,12,0,12,0,12,0,12
1981-08-29 07:01:13.340 ,4,0,0,12,0,12,0,12,0,12
1981-08-29 07:01:25.340 ,4,0,0,12,0,12,0,12,0,12
1981-08-29 07:01:37.340 ,5,1,0,12,0,12,0,12,0,12
1981-08-29 07:01:49.340 ,5,1,0,12,0,12,0,12,0,12
1981-08-29 07:02:01.340 ,5,0,0,12,0,12,0,12,0,12
1981-08-29 07:02:13.340 ,5,0,0,12,0,12,0,12,0,12
1981-08-29 07:02:25.340 ,6,1,0,12,0,12,0,12,0,12
1981-08-29 07:02:37.340 ,6,1,0,12,0,12,0,12,0,12
1981-08-29 07:02:49.340 ,6,0,0,12,0,12,0,12,0,12
1981-08-29 07:03:01.340 ,6,0,0,12,0,12,0,12,0,12
1981-08-29 07:03:13.340 ,7,1,0,12,0,12,0,12,0,12
1981-08-29 07:03:25.340 ,7,1,0,12,0,12,0,12,0,12
1981-08-29 07:03:37.340 ,7,0,0,12,0,12,0,12,0,12
1981-08-29 07:03:49.340 ,7,0,0,12,0,12,0,12,0,12
1981-08-29 07:04:01.340 ,7,1,0,12,0,12,0,12,0,12
1981-08-29 07:04:13.340 ,7,1,0,12,0,12,0,12,0,12
1981-08-29 07:04:25.340 ,6,1,0,12,0,12,0,12,0,12
1981-08-29 07:04:37.340 ,6,1,0,12,0,12,0,12,0,12
1981-08-29 07:04:49.340 ,5,1,0,12,0,12,0,12,0,12
1981-08-29 07:05:01.340 ,5,1,0,12,0,12,0,12,0,12
1981-08-29 07:05:13.340 ,4,1,0,12,0,12,0,12,0,12
1981-08-29 07:05:25.340 ,4,1,0,12,0,12,0,12,0,12
1981-08-29 07:05:37.340 ,3,1,0,12,0,12,0,12,0,12
1981-08-29 07:05:49.340 ,3,1,0,12,0,12,0,12,0,12
1981-08-29 07:06:01.340 ,2,1,0,12,0,12,0,12,0,12
1981-08-29 07:06:13.340 ,2,1,0,12,0,12,0,12,0,12
1981-08-29 07:06:25.340 ,1,1,0,12,0,12,0,12,0,12
1981-08-29 07:06:37.340 ,1,1,0,12,0,12,0,12,0,12
1981-08-29 07:06:49.340 ,0,1,0,12,0,12,0,12,0,12
1981-08-29 07:07:01.340 ,0,1,0,12,0,12,0,12,0,12
1981-08-29 07:07:13.340 ,0,1,0,12,0,12,0,12,0,12
1981-08-29 07:07:25.340 ,0,1,0,12,0,12,0,12,0,12
1981-08-29 07:07:37.340 ,1,1,0,12,0,12,0,12,0,12
1981-08-29 07:07:49.340 ,1,1,0,12,0,12,0,12,0,12
1981-08-29 07:08:01.340 ,2,1,0,12,0,12,0,12,0,12
1981-08-29 07:08:13.340 ,2,1,0,12,0,12,0,12,0,12
1981-08-29 07:08:25.340 ,3,1,0,12,0,12,0,12,0,12
1981-08-29 07:08:37.340 ,3,1,0,12,0,12,0,12,0,12
1981-08-29 07:08:49.340 ,4,1,0,12,0,12,0,12,0,12
1981-08-29 07:09:01.340 ,4,1,0,12,0,12,0,12,0,12
1981-08-29 07:09:13.340 ,5,1,0,12,0,12,0,12,0,12
1981-08-29 07:09:25.340 ,5,1,0,12,0,12,0,12,0,12
1981-08-29 07:09:37.340 ,6,1,0,12,0,12,0,12,0,12
1981-08-29 07:09:49.340 ,6,1,0,12,0,12,0,12,0,12
1981-08-29 07:10:01.340 ,7,1,0,12,0,12,0,12,0,12
1981-08-29 07:10:13.340 ,7,1,0,12,0,12,0,12,0,12
1981-08-29 07:10:25.340 ,7,1,0,12,0,12,0,12,0,12
1981-08-29 07:10:37.340 ,7,1,0,12,0,12,0,12,0,12
1981-08-29 07:10:49.340 ,7,0,0,12,0,12,0,12,0,12
1981-08-29 07:11:01.340 ,7,0,0,12,0,12,0,12,0,12
1981-08-29 07:11:13.340 ,6,1,0,12,0,12,0,12,0,12
1981-08-29 07:11:25.340 ,6,1,0,12,0,12,0,12,0,12
1981-08-29 07:11:37.340 ,6,0,0,12,0,12,0,12,0,12
1981-08-29 07:11:49.340 ,6,0,0,12,0,12,0,12,0,12
1981-08-29 07:12:01.340 ,5,1,0,12,0,12,0,12,0,12
1981-08-29 07:12:13.340 ,5,1,0,12,0,12,0,12,0,12
1981-08-29 07:12:25.340 ,5,0,0,12,0,12,0,12,0,12
1981-08-29 07:12:37.340 ,5,0,0,12,0,12,0,12,0,12
1981-08-29 07:12:49.340 ,4,1,0,12,0,12,0,12,0,12
1981-08-29 07:13:01.340 ,4,1,0,12,0,12,0,12,0,12
1981-08-29 07:13:13.340 ,4,0,0,12,0,12,0,12,0,12
1981-08-29 07:13:25.340 ,4,0,0,12,0,12,0,12,0,12
1981-08-29 07:13:37.340 ,3,1,0,12,0,12,0,12,0,12
1981-08-29 07:13:49.340 ,3,1,0,12,0,12,0,12,0,12
1981-08-29 07:14:01.340 ,3,0,0,12,0,12,0,12,0,12
1981-08-29 07:14:13.340 ,3,0,0,12,0,12,0,12,0,12
1981-08-29 07:14:25.340 ,2,1,0,12,0,12,0,12,0,12
1981-08-29 07:14:37.340 ,2,1,0,12,0,12,0,12,0,12
1981-08-29 07:14:49.340 ,2,0,0,12,0,12,0,12,0,12
1981-08-29 07:15:01.340 ,2,0,0,12,0,12,0,12,0,12
1981-08-29 07:15:13.340 ,1,1,0,12,0,12,0,12,0,12
1981-08-29 07:15:25.340 ,1,1,0,12,0,12,0,12,0,12
1981-08-29 07:15:37.340 ,1,0,0,12,0,12,0,12,0,12
1981-08-29 07:15:49.340 ,1,0,0,12,0,12,0,12,0,12
1981-08-29 07:16:01.340 ,0,1,0,12,0,12,0,12,0,12
1981-08-29 07:16:13.340 ,0,1,0,12,0,12,0,12,0,12
1981-08-29 07:16:25.340 ,0,0,0,12,0,12,0,12,0,12
1981-08-29 07:16:37.340 ,0,0,0,12,0,12,0,12,0,12
1981-08-29 07:16:49.340 ,0,1,0,12,0,12,0,12,0,12
1981-08-29 07:17:01.340 ,0,1,0,12,0,12,0,12,0,12
1981-08-29 07:17:13.340 ,0,0,0,12,0,12,0,12,0,12
1981-08-29 07:17:25.340 ,0,0,0,12,0,12,0,12,0,12
1981-08-29 07:17:37.340 ,1,1,0,12,0,12,0,12,0,12
1981-08-29 07:17:49.340 ,1,1,0,12,0,12,0,12,0,12
1981-08-29 07:18:01.340 ,1,0,0,12,0,12,0,12,0,12
1981-08-29 07:18:13.340 ,1,0,0,12,0,12,0,12,0,12
1981-08-29 07:18:25.340 ,2,1,0,12,0,12,0,12,0,12
1981-08-29 07:18:37.340 ,2,1,0,12,0,12,0,12,0,12
1981-08-29 07:18:49.340 ,2,0,0,12,0,12,0,12,0,12
1981-08-29 07:19:01.340 ,2,0,0,12,0,12,0,12,0,12
1981-08-29 07:19:13.340 ,3,1,0,12,0,12,0,12,0,12
1981-08-29 07:19:25.340 ,3,1,0,12,0,12,0,12,0,12
1981-08-29 07:19:37.340 ,3,0,0,12,0,12,0,12,0,12
1981-08-29 07:19:49.340 ,3,0,0,12,0,12,0,12,0,12
1981-08-29 07:20:01.340 ,4,1,0,12,0,12,0,12,0,12
1981-08-29 07:20:13.340 ,4,1,0,12,0,12,0,12,0,12
1981-08-29 07:20:25.340 ,4,0,0,12,0,12,0,12,0,12
1981-08-29 07:20:37.340 ,4,0,0,12,0,12,0,12,0,12
1981-08-29 07:20:49.340 ,5,1,0,12,0,12,0,12,0,12
1981-08-29 07:21:01.340 ,5,1,0,12,0,12,0,12,0,12
1981-08-29 07:21:13.340 ,5,0,0,12,0,12,0,12,0,12
1981-08-29 07:21:25.340 ,5,0,0,12,0,12,0,12,0,12
1981-08-29 07:21:37.340 ,6,1,0,12,0,12,0,12,0,12
1981-08-29 07:21:49.340 ,6,1,0,12,0,12,0,12,0,12
1981-08-29 07:22:01.340 ,6,0,0,12,0,12,0,12,0,12
1981-08-29 07:22:13.340 ,6,0,0,12,0,12,0,12,0,12
1981-08-29 07:22:25.340 ,7,1,0,12,0,12,0,12,0,12
1981-08-29 07:22:37.340 ,7,1,0,12,0,12,0,12,0,12
1981-08-29 07:22:49.340 ,7,0,0,12,0,12,0,12,0,12
1981-08-29 07:23:01.340 ,7,0,0,12,0,12,0,12,0,12
1981-08-29 07:23:13.340 ,7,1,0,12,0,12,0,12,0,12
1981-08-29 07:23:25.340 ,7,1,0,12,0,12,0,12,0,12
1981-08-29 07:23:37.340 ,6,1,0,12,0,12,0,12,0,12
1981-08-29 07:23:49.340 ,6,1,0,12,0,12,0,12,0,12
1981-08-29 07:24:01.340 ,5,1,0,12,0,12,0,12,0,12
1981-08-29 07:24:13.340 ,5,1,0,12,0,12,0,12,0,12
1981-08-29 07:24:25.340 ,4,1,0,12,0,12,0,12,0,12
1981-08-29 07:24:37.340 ,4,1,0,12,0,12,0,12,0,12
1981-08-29 07:24:49.340 ,3,1,0,12,0,12,0,12,0,12
1981-08-29 07:25:01.340 ,3,1,0,12,0,12,0,12,0,12
1981-08-29 07:25:13.340 ,2,1,0,12,0,12,0,12,0,12
1981-08-29 07:25:25.340 ,2,1,0,12,0,12,0,12,0,12
1981-08-29 07:25:37.340 ,1,1,0,12,0,12,0,12,0,12
1981-08-29 07:25:49.340 ,1,1,0,12,0,12,0,12,0,12
1981-08-29 07:26:01.340 ,0,1,0,12,0,12,0,12,0,12
1981-08-29 07:26:13.340 ,0,1,0,12,0,12,0,12,0,12
1981-08-29 07:26:25.340 ,0,1,0,12,0,12,0,12,0,12
1981-08-29 07:26:37.340 ,0,1,0,12,0,12,0,12,0,12
1981-08-29 07:26:49.340 ,1,1,0,12,0,12,0,12,0,12
1981-08-29 07:27:01.340 ,1,1,0,12,0,12,0,12,0,12
1981-08-29 07:27:13.340 ,2,1,0,12,0,12,0,12,0,12
1981-08-29 07:27:25.340 ,2,1,0,12,0,12,0,12,0,12
1981-08-29 07:27:37.340 ,3,1,0,12,0,12,0,12,0,12
1981-08-29 07:27:49.340 ,3,1,0,12,0,12,0,12,0,12
1981-08-29 07:28:01.340 ,4,1,0,12,0,12,0,12,0,12
1981-08-29 07:28:13.340 ,4,1,0,12,0,12,0,12,0,12
1981-08-29 07:28:25.340 ,5,1,0,12,0,12,0,12,0,12
1981-08-29 07:28:37.340 ,5,1,0,12,0,12,0,12,0,12
1981-08-29 07:28:49.340 ,6,1,0,12,0,12,0,12,0,12
1981-08-29 07:29:01.340 ,6,1,0,12,0,12,0,12,0,12
1981-08-29 07:29:13.340 ,7,1,0,12,0,12,0,12,0,12
1981-08-29 07:29:25.340 ,7,1,0,12,0,12,0,12,0,12
1981-08-29 07:29:37.340 ,7,1,0,12,0,12,0,12,0,12
1981-08-29 07:29:49.340 ,7,1,0,12,0,12,0,12,0,12
1981-08-29 07:30:01.340 ,7,0,0,12,0,12,0,12,0,12
1981-08-29 07:30:13.340 ,7,0,0,12,0,12,0,12,0,12
1981-08-29 07:30:25.340 ,6,1,0,12,0,12,0,12,0,12
1981-08-29 07:30:37.340 ,6,1,0,12,0,12,0,12,0,12
1981-08-29 07:30:49.340 ,6,0,0,12,0,12,0,12,0,12
1981-08-29 07:31:01.340 ,6,0,0,12,0,12,0,12,0,12
1981-08-29 07:31:13.340 ,5,1,0,12,0,12,0,12,0,12
1981-08-29 07:31:25.340 ,5,1,0,12,0,12,0,12,0,12
1981-08-29 07:31:37.340 ,5,0,0,12,0,12,0,12,0,12
1981-08-29 07:31:49.340 ,5,0,0,12,0,12,0,12,0,12
1981-08-29 07:32:01.340 ,4,1,0,12,0,12,0,12,0,12
1981-08-29 07:32:13.340 ,4,1,0,12,0,12,0,12,0,12
1981-08-29 07:32:25.340 ,4,0,0,12,0,12,0,12,0,12
1981-08-29 07:32:37.340 ,4,0,0,12,0,12,0,12,0,12
1981-08-29 07:32:49.340 ,3,1,0,12,0,12,0,12,0,12
1981-08-29 07:33:01.340 ,3,1,0,12,0,12,0,12,0,12
1981-08-29 07:33:13.340 ,3,0,0,12,0,12,0,12,0,12
1981-08-29 07:33:25.340 ,3,0,0,12,0,12,0,12,0,12
1981-08-29 07:33:37.340 ,2,1,0,12,0,12,0,12,0,12
1981-08-29 07:33:49.340 ,2,1,0,12,0,12,0,12,0,12
1981-08-29 07:34:01.340 ,2,0,0,12,0,12,0,12,0,12
1981-08-29 07:34:13.340 ,2,0,0,12,0,12,0,12,0,12
1981-08-29 07:34:25.340 ,1,1,0,12,0,12,0,12,0,12
1981-08-29 07:34:37.340 ,1,1,0,12,0,12,0,12,0,12
1981-08-29 07:34:49.340 ,1,0,0,12,0,12,0,12,0,12
1981-08-29 07:35:01.340 ,1,0,0,12,0,12,0,12,0,12
1981-08-29 07:35:13.340 ,0,1,0,12,0,12,0,12,0,12
1981-08-29 07:35:25.340 ,0,1,0,12,0,12,0,12,0,12
1981-08-29 07:35:37.340 ,0,0,0,12,0,12,0,12,0,12
1981-08-29 07:35:49.340 ,0,0,0,12,0,12,0,12,0,12
1981-08-29 07:36:01.340 ,0,1,0,12,0,12,0,12,0,12
1981-08-29 07:36:13.340 ,0,1,0,12,0,12,0,12,0,12
1981-08-29 07:36:25.340 ,0,0,0,12,0,12,0,12,0,12